Weather History for North Las Vegas, NV

Change the Weather History Date:

Wednesday, January 11, 2012

  Actual Average Record
Temperature  
Mean Temperature 50 °F -  
Max Temperature 62 °F 54 °F 71 °F (1956)
Min Temperature 39 °F 36 °F 10 °F (1952)
Degree Days  
Heating Degree Days 14    
Moisture  
Dew Point 19 °F    
Average Humidity 32    
Maximum Humidity 56    
Minimum Humidity 12    
Precipitation  
Precipitation 0.00 in - - ()
Sea Level Pressure  
Sea Level Pressure 30.19 in    
Wind  
Wind Speed 6 mph (NE)    
Max Wind Speed 13 mph    
Max Gust Speed -    
Visibility 10 miles    
Events      
Averages and records for this station are not official NWS values.
T = Trace of Precipitation, MM = Missing Value Source: NWS Daily Summary

Daily Weather History Graph

Daily Weather History Graph

Search for Another Location

Airport:

Trip Planner

Search our weather history database for the weather conditions in past years. The results will help you decide how hot, cold, wet, or windy it might be!

Date:

Astronomy

Jan. 11, 2012 Rise Set
Actual Time 6:52 AM PST 4:45 PM PST
Civil Twilight 6:23 AM PST 5:13 PM PST
Nautical Twilight 5:52 AM PST 5:45 PM PST
Astronomical Twilight 5:21 AM PST 6:16 PM PST
Moon 7:42 PM PST (1/11) 8:11 AM PST (1/11)
Length of Visible Light 10h 49m
Length of Day
9h 53m
Waning Gibbous, 93% of the Moon is Illuminated
Jan 11
Waning Gibbous
Jan 16
Last Quarter
Jan 22
New
Jan 30
First Quarter
Feb 7
Full

Hourly Weather History & Observations

Time (PST) Temp. Windchill Dew Point Humidity Pressure Visibility Wind Dir Wind Speed Gust Speed Precip Events Conditions
12:53 AM 45.0 °F 41.8 °F 25.0 °F 46% 30.14 in 10.0 mi NW 5.8 mph - N/A   Clear
1:53 AM 43.0 °F 41.3 °F 24.1 °F 47% 30.16 in 10.0 mi NW 3.5 mph - N/A   Clear
2:53 AM 44.6 °F 41.4 °F 24.8 °F 46% 30.10 in 10.0 mi NNW 5.8 mph - N/A   Clear
3:53 AM 44.1 °F 40.1 °F 24.1 °F 45% 30.15 in 10.0 mi NNW 6.9 mph - N/A   Clear
4:53 AM 43.0 °F 39.5 °F 24.1 °F 47% 30.16 in 10.0 mi North 5.8 mph - N/A   Clear
5:53 AM 42.1 °F 39.2 °F 24.1 °F 49% 30.19 in 10.0 mi NNW 4.6 mph - N/A   Clear
6:53 AM 39.2 °F 37.0 °F 24.8 °F 56% 30.13 in 10.0 mi WNW 3.5 mph - N/A   Clear
7:53 AM 43.0 °F 38.8 °F 24.1 °F 47% 30.23 in 10.0 mi NW 6.9 mph - N/A   Clear
8:53 AM 48.9 °F - 25.0 °F 39% 30.23 in 10.0 mi East 10.4 mph - N/A   Clear
9:53 AM 52.0 °F - 24.1 °F 34% 30.25 in 10.0 mi Calm Calm - N/A   Clear
10:53 AM 55.9 °F - 21.0 °F 26% 30.24 in 10.0 mi Calm Calm - N/A   Clear
11:53 AM 59.0 °F - 16.0 °F 19% 30.20 in 10.0 mi SE 5.8 mph - N/A   Clear
12:53 PM 61.0 °F - 16.0 °F 17% 30.17 in 10.0 mi East 9.2 mph - N/A   Clear
1:53 PM 62.1 °F - 15.1 °F 16% 30.16 in 10.0 mi ESE 12.7 mph - N/A   Clear
2:53 PM 62.1 °F - 8.1 °F 12% 30.15 in 10.0 mi East 11.5 mph - N/A   Clear
3:53 PM 60.1 °F - 10.9 °F 14% 30.15 in 10.0 mi East 12.7 mph - N/A   Clear
4:53 PM 57.0 °F - 10.9 °F 16% 30.16 in 10.0 mi East 6.9 mph - N/A   Clear
5:53 PM 54.0 °F - 12.9 °F 20% 30.18 in 10.0 mi ENE 8.1 mph - N/A   Clear
6:53 PM 53.1 °F - 15.1 °F 22% 30.20 in 10.0 mi East 10.4 mph - N/A   Clear
7:53 PM 51.1 °F - 16.0 °F 25% 30.21 in 10.0 mi SW 4.6 mph - N/A   Clear
8:53 PM 48.9 °F - 14.0 °F 25% 30.21 in 10.0 mi South 9.2 mph - N/A   Clear
9:53 PM 45.0 °F 42.6 °F 14.0 °F 29% 30.22 in 10.0 mi WNW 4.6 mph - N/A   Clear
10:53 PM 44.1 °F 39.5 °F 16.0 °F 32% 30.23 in 10.0 mi NW 8.1 mph - N/A   Clear
11:53 PM 43.0 °F 41.3 °F 15.1 °F 32% 30.23 in 10.0 mi ESE 3.5 mph - N/A   Clear